Dewpoint
-4 -2 -1 1 1 2 2 2 3 4 5 6 4 2 3 7 8 8 7 5 4 1 1 2 1 9 11 7 0 -2 -0 -1 -4 -3 -5 -5 -5 -5 -7 -8 -8 -5 -4 -4 -2
-2 -2 0 1 1 0 1 3 3 5 5 5 5 4 5 7 7 6 6 4 2 1 4 -0 0 10 10 8 2 -4 -1 -4 -5 -6 -5 -5 -5 -6 -8 -7 -6 -5 -4 -3 -3
-5 -1 1 2 0 -1 1 2 1 2 3 4 4 5 6 7 5 5 4 3 1 1 4 0 1 5 4 8 5 -4 -3 -7 -3 -4 -5 -5 -6 -7 -8 -7 -7 -6 -4 -3 -2
-6 -5 -1 2 2 -1 1 0 -0 -0 -0 2 4 5 6 5 5 2 2 2 1 0 4 2 2 4 1 3 6 -2 -4 -4 -3 -4 -5 -5 -7 -8 -9 -9 -9 -8 -6 -3 -3
-10 -7 -6 -2 0 -0 -2 -2 -2 -1 -2 0 4 4 5 5 3 -1 1 2 -1 2 2 2 -0 -1 6 -1 -3 -4 -4 -2 -4 -5 -6 -6 -7 -7 -9 -11 -8 -7 -5 -4 -4
-4 -10 -7 -6 -5 -5 -4 -4 -3 -2 -2 0 4 4 4 0 1 1 -4 0 -4 1 3 1 -3 -4 -0 1 -2 -5 -3 -4 -7 -5 -5 -6 -6 -6 -8 -8 -7 -6 -5 -5 -5
-5 -5 -10 -7 -6 -4 -5 -4 -3 -3 -3 -0 3 3 2 -2 -3 -5 -6 -4 -6 -2 1 -1 -3 -4 -4 -3 -3 -4 -4 -5 -5 -6 -5 -8 -8 -4 -8 -6 -6 -5 -5 -4 -4
-5 -6 -7 -10 -7 -6 -6 -4 -4 -2 -1 -3 0 1 -0 -5 -4 -5 -7 -4 -3 -2 -1 -2 -3 -5 -5 -5 -6 -5 -7 -5 -6 -4 -4 -10 -12 -8 -6 -5 -4 -4 -3 -3 -4
-10 -5 -5 -9 -10 -8 -7 -6 -5 -3 -3 -5 -1 0 -3 -5 -3 -4 -5 -3 -2 -1 -2 -3 -6 -6 -6 -7 -7 -8 -7 -7 -7 -3 -4 -10 -13 -6 -5 -5 -4 -3 -3 -3 -3
-7 -8 -6 -6 -9 -9 -8 -7 -8 -8 -6 -5 -4 -4 -4 -5 -5 -4 -2 -1 -1 -2 -3 -5 -7 -5 -7 -10 -4 -10 -9 -8 -10 -3 -4 -4 -6 -8 -5 -4 -5 -5 -4 -3 -3
-5 -7 -5 -7 -8 -7 -8 -6 -5 -4 -5 -6 -7 -6 -5 -5 -5 -3 -3 -2 -4 -4 -4 -6 -6 -3 -6 -12 -17 -11 -12 -9 -5 -4 -4 -3 -5 -7 -6 -4 -5 -5 -4 -3 -3
-4 -5 -7 -4 -7 -8 -7 -4 -3 -6 -5 -7 -8 -4 -5 -6 -4 -3 -4 -5 -6 -6 -5 -5 -5 -9 -7 -8 -8 -10 -9 -8 -4 -5 -5 -5 -4 -5 -7 -4 -5 -5 -4 -3 -3
-2 -4 -5 -5 -6 -9 -8 -7 -5 -5 -4 -6 -5 -5 -4 -5 -7 -4 -5 -6 -7 -5 -7 -5 -9 -9 -8 -7 -8 -8 -8 -6 -6 -5 -5 -5 -4 -4 -5 -6 -5 -4 -5 -4 -3
2 0 -4 -7 -5 -5 -7 -6 -8 -5 -0 -2 -3 -4 -4 -4 -5 -5 -6 -7 -6 -6 -9 -9 -6 -7 -7 -7 -8 -7 -8 -5 -4 -4 -4 -6 -6 -8 -7 -3 -4 -5 -4 -5 -3
4 1 0 -2 -4 -4 -3 -5 -3 -3 -2 -6 -4 -4 -2 -4 -6 -4 -5 -5 -5 -4 -8 -8 -5 -6 -6 -7 -9 -7 -4 -4 -6 -4 -5 -5 -4 -6 -3 -2 -2 -4 -5 -5 -4
4 3 2 -1 -3 -3 -3 -4 -1 -1 -4 -3 -3 -2 -2 -3 -5 -5 -5 -5 -5 -5 -5 -5 -6 -7 -6 -3 -4 -2 -2 -1 -1 -2 -1 -6 -4 -6 -6 -4 -3 -3 -5 -4 -4
2 4 3 1 -2 -1 -2 -2 0 0 -6 -1 -1 -2 -3 -2 -4 -6 -4 -3 -2 -1 -2 -4 -5 -6 -4 -2 -3 -3 -2 2 1 2 2 -3 -4 -5 -7 -4 -4 -2 -4 -4 -3
-0 3 4 3 -0 -4 0 -1 -0 -6 -5 -2 -2 -2 -2 -3 -4 -5 -4 -3 -5 -4 -2 -0 -1 -4 -5 -3 -1 -2 -4 2 -2 0 -0 -1 -0 -3 -6 -4 -4 -3 -3 -3 -2
0 3 4 3 0 -3 0 1 -4 -5 -7 -1 -3 -2 -2 -3 -4 -4 -4 -3 -4 -5 -3 -2 -3 -5 -5 -4 -4 -2 0 -5 -0 -1 -1 -0 -3 -7 -5 -4 -3 -1 -2 -1 -1
-1 -0 3 3 2 -0 -0 -0 -4 -9 -3 -3 -2 -3 -2 -2 -3 -4 -4 -7 -6 -5 -8 -5 -1 -4 -4 -4 -4 -3 -3 0 0 0 -2 -4 -3 -5 -4 -4 -3 -2 -2 -1 -0
-2 2 2 2 0 2 2 -1 -5 -8 -4 -3 -3 -3 -4 -2 -3 -3 -4 -6 -7 -5 -6 -6 -3 -2 -4 -2 -1 -1 -1 -2 -1 -4 -0 -2 -3 -5 -7 -5 -3 -2 -2 -1 -1
-1 1 1 1 3 2 1 -2 -6 -5 -3 -4 -6 -7 -4 -4 -3 -3 -4 -6 -7 -6 -3 -6 -3 -0 -2 -4 -5 -3 -2 -3 -1 -2 -2 -1 -1 -6 -5 -5 -4 -3 -3 -2 -2
-1 -1 -3 3 3 2 -1 -2 -3 -2 -2 -3 -5 -7 -8 -4 -4 -4 -5 -7 -7 -5 -4 -4 -2 0 0 -2 -3 -2 -2 -3 -3 -2 -0 -1 -1 -4 -4 -4 -4 -2 -2 -2 -2
-2 0 1 3 2 -1 -0 -0 -2 -2 -3 -3 -4 -6 -6 -5 -6 -5 -6 -6 -7 -6 -5 -5 -3 -3 -4 -3 -1 -0 -1 -2 -3 -0 -1 -1 -4 -4 -3 -3 -3 -2 -2 -2 -3
-1 -0 1 3 2 2 -1 -1 -2 -1 -2 -3 -3 -4 -6 -5 -4 -4 -5 -5 -5 -3 -4 -5 -3 -5 -1 -2 -2 -2 -1 -2 -2 -3 -1 -4 -4 -6 -4 -4 -3 -2 -3 -3 -5
-2 -1 -2 -2 -1 2 1 -1 -1 -3 -1 -1 -3 -3 -4 -4 -5 -3 -4 -5 -5 -2 -4 -4 -1 -5 -3 -1 -1 -1 -1 -2 -2 -3 -4 -3 -3 -5 -4 -4 -3 -3 -4 -4 -6
-2 -2 -2 -2 1 2 3 1 -0 -1 -2 -3 -3 -2 -3 -4 -6 -5 -6 -6 -5 -2 -3 -3 -2 -3 -2 -3 -3 -2 -1 -1 -2 -2 -3 -1 -4 -4 -4 -4 -4 -4 -4 -4 -7
Wind_Speed
12 10 7 9 12 10 12 15 21 19 10 8 8 13 15 15 16 12 17 11 18 10 19 17 16 16 14 12 9 3 1 3 4 6 3 11 4 7 7 13 6 7 6 5 21
11 12 8 7 11 12 14 12 15 5 4 5 7 9 12 13 9 15 13 14 12 14 18 19 20 22 12 10 4 4 2 5 2 3 4 10 6 13 8 10 4 7 8 14 19
10 11 12 8 9 12 11 10 14 10 6 4 5 9 10 10 7 13 11 16 16 18 18 16 18 13 10 15 12 4 4 2 2 3 5 10 8 7 12 3 10 16 18 21 20
11 11 12 13 10 11 12 12 15 13 5 6 5 10 10 10 6 5 11 14 17 20 16 17 21 8 8 9 13 6 7 5 3 2 5 7 11 5 9 4 6 10 17 21 19
15 11 13 15 14 10 13 13 12 10 7 6 7 10 12 9 9 6 7 13 15 18 20 21 21 9 9 12 17 9 4 5 3 4 5 9 3 4 9 7 6 18 20 19 17
15 15 12 13 16 12 10 11 9 8 6 4 8 11 10 6 8 10 6 16 15 20 22 24 17 9 9 8 10 6 5 4 4 5 4 4 2 3 7 11 14 21 21 19 17
16 13 13 12 13 14 8 8 7 6 5 4 9 11 13 15 6 7 10 16 17 21 24 25 11 9 12 7 9 10 4 1 5 5 3 4 3 6 7 14 21 24 21 19 16
17 15 13 11 12 13 9 4 7 6 6 6 9 12 10 7 10 10 12 15 16 19 19 21 13 12 4 17 7 4 2 5 3 6 3 5 6 3 12 20 24 23 21 19 16
19 15 13 13 11 10 12 6 8 10 11 9 8 10 7 7 11 11 13 17 17 18 16 16 16 7 10 7 4 1 5 4 2 9 3 4 4 2 14 20 23 22 21 19 18
20 18 13 13 12 10 9 9 8 11 11 8 10 6 12 7 11 12 14 16 17 19 16 11 6 4 3 3 8 7 4 2 4 6 3 4 6 2 11 20 23 22 21 21 20
21 19 15 11 12 11 8 4 5 4 15 13 6 11 2 7 12 13 16 19 15 14 6 6 4 7 7 5 3 5 6 4 2 3 4 6 4 6 10 17 20 22 23 23 22
22 20 19 13 11 12 11 11 8 3 7 20 25 15 14 11 6 16 20 11 9 5 5 4 5 7 7 5 5 4 5 4 1 2 2 1 8 8 11 13 26 29 26 26 23
25 23 20 16 14 12 16 17 15 10 4 5 25 18 11 18 7 21 22 9 5 6 6 7 3 9 7 4 5 2 6 4 2 2 2 3 7 4 4 11 18 27 28 28 27
27 25 22 20 10 7 13 14 14 8 3 4 6 7 14 13 5 17 21 9 2 7 8 4 3 7 5 5 5 5 5 6 7 4 3 1 4 4 3 4 7 22 28 29 29
25 25 24 17 15 12 9 7 5 4 3 3 5 6 10 8 13 9 15 4 8 6 6 6 7 5 4 2 4 3 5 5 4 5 2 1 1 6 0 6 8 15 25 29 30
27 24 25 18 17 11 9 4 5 5 8 6 7 6 4 4 4 7 6 4 6 5 5 3 2 2 4 4 3 10 7 7 5 3 1 4 5 5 5 5 3 7 22 28 30
28 25 23 22 17 9 8 6 2 4 0 7 6 6 4 4 3 4 6 5 6 6 3 3 1 1 5 7 6 4 6 3 2 1 5 1 2 8 3 3 0 9 21 25 30
29 30 28 24 19 15 10 2 7 5 7 2 6 5 8 7 5 5 7 7 5 5 5 7 3 8 3 4 8 5 5 5 8 5 3 3 6 5 1 2 1 6 21 26 29
36 30 34 27 15 17 15 6 9 9 5 9 4 6 5 5 6 4 7 6 8 9 7 6 2 2 3 2 3 5 5 4 7 2 2 3 6 4 1 2 4 14 25 29 29
38 35 37 29 23 23 5 18 9 8 7 2 9 7 11 9 8 8 9 6 7 11 3 8 5 2 2 3 3 3 5 3 2 4 5 3 5 4 5 7 6 10 23 28 27
30 14 20 19 25 24 12 11 15 13 10 8 9 5 6 9 9 6 7 3 6 7 5 5 5 1 4 6 8 3 3 4 4 2 5 3 5 5 7 7 9 12 26 30 28
17 6 13 25 11 7 12 9 11 5 15 5 4 3 8 10 8 8 12 6 12 14 11 6 6 4 5 2 2 2 6 6 5 6 1 2 5 2 2 2 11 17 25 25 25
11 12 23 36 11 8 4 9 9 5 5 8 8 5 4 8 5 8 8 1 15 9 11 9 2 4 4 4 3 5 5 4 5 3 6 6 4 1 2 4 11 23 27 27 26
8 3 8 27 15 17 7 9 17 12 5 5 5 5 4 3 3 7 7 2 7 7 5 10 4 7 9 6 6 7 8 6 5 3 5 5 3 5 5 6 13 24 28 28 27
7 5 8 4 10 8 12 11 16 10 6 12 4 5 8 6 3 6 4 3 3 5 3 5 6 4 3 4 4 5 9 14 10 5 6 6 10 7 12 12 18 26 28 29 26
7 6 10 21 21 21 14 13 10 13 10 6 6 11 8 7 9 10 8 5 6 3 6 0 3 4 2 3 5 2 3 11 8 2 3 5 4 2 6 19 22 28 30 29 25
22 21 10 11 8 4 14 20 12 8 7 6 14 7 9 7 4 2 5 10 10 10 7 7 6 3 3 2 4 4 9 11 6 4 8 7 7 6 4 13 25 31 30 28 23
Wind_Direction
334 330 346 338 328 328 334 334 327 309 265 282 242 216 210 209 226 203 222 221 215 215 191 196 182 182 181 135 31 317 329 246 221 155 203 165 135 154 146 141 157 168 160 169 172
330 322 319 333 322 326 341 1 12 19 300 295 247 217 211 216 226 235 227 226 209 203 190 189 167 155 132 118 93 285 195 235 212 212 198 170 169 153 154 144 143 164 165 158 171
313 316 306 306 316 320 328 322 347 11 359 299 269 218 220 218 234 260 245 219 199 191 194 187 171 143 126 144 133 234 227 285 254 255 183 151 146 166 144 205 184 186 167 165 172
301 299 302 294 294 313 312 308 313 328 319 286 251 212 207 192 199 293 243 181 188 195 200 192 178 167 126 139 138 303 247 255 225 204 164 163 151 157 183 169 184 182 176 171 177
301 290 289 293 289 297 305 306 306 310 306 271 219 187 182 210 225 211 175 178 191 195 204 194 186 158 148 145 143 212 186 225 203 174 153 147 174 174 209 190 171 166 172 174 177
324 296 287 287 291 291 304 309 301 296 297 237 201 170 195 248 249 248 213 198 199 195 199 196 198 184 125 147 147 198 165 195 190 176 163 162 213 194 205 192 177 173 173 175 178
340 314 286 284 288 287 292 303 291 293 283 232 206 197 230 245 233 232 218 204 202 199 194 193 197 200 148 111 131 166 133 197 215 193 177 156 258 232 185 177 173 173 174 175 176
347 335 302 281 282 287 279 283 271 264 243 259 219 220 243 252 226 218 203 198 195 187 193 194 203 193 128 122 99 138 93 175 196 169 197 163 260 201 180 172 171 175 178 180 182
349 340 319 296 283 280 283 252 220 228 256 268 232 218 253 232 210 198 196 188 182 180 183 187 169 144 132 122 105 316 184 189 207 203 147 180 250 139 181 182 177 183 185 185 183
347 342 330 305 291 277 270 267 224 232 241 243 237 248 240 225 192 184 181 179 165 168 154 164 158 109 82 149 195 181 168 186 205 204 177 175 251 235 193 194 193 192 190 190 189
336 342 332 316 295 283 253 220 225 206 216 202 217 227 308 186 174 181 174 172 169 169 154 165 133 195 184 202 150 136 118 151 221 179 155 218 258 237 200 203 206 202 196 193 192
331 331 336 316 296 276 249 211 245 243 272 244 236 260 254 188 175 181 170 175 162 157 133 87 203 199 137 153 127 132 121 166 64 131 140 26 266 241 193 213 206 202 199 195 189
331 326 325 321 297 278 264 237 250 284 254 238 220 232 219 196 213 182 181 177 138 140 182 152 180 146 137 158 136 128 143 168 149 125 67 334 285 219 214 209 212 215 208 201 196
324 328 319 321 310 297 272 260 250 253 36 244 191 218 191 192 210 177 183 176 140 160 158 153 138 143 128 174 144 155 169 133 131 116 215 354 269 275 214 213 208 207 208 206 197
311 318 321 321 298 294 302 279 224 196 340 191 156 171 179 179 139 180 182 184 156 140 134 210 157 148 139 182 142 153 107 115 98 95 68 211 131 267 155 237 223 209 206 202 197
296 305 308 309 295 291 279 236 229 46 257 165 138 165 155 196 176 135 162 156 125 101 41 95 125 108 127 71 63 159 84 50 59 77 307 216 173 269 196 207 203 193 202 194 189
289 288 292 298 288 304 222 199 22 194 158 177 169 162 182 180 186 164 161 171 155 112 169 31 28 58 131 85 9 70 95 36 11 349 220 52 126 251 225 225 239 188 184 184 181
294 276 276 279 290 252 221 117 207 236 206 150 127 111 172 165 215 177 133 188 239 98 130 149 225 170 178 162 171 186 149 163 191 191 199 92 228 260 189 329 320 173 179 174 174
309 285 269 268 274 220 189 214 206 178 189 157 87 125 218 206 164 152 203 203 200 184 144 142 173 53 58 123 126 180 194 168 107 22 57 206 280 274 213 95 105 152 164 169 173
317 290 271 264 265 202 175 228 212 188 128 240 171 163 174 186 161 185 176 202 203 190 177 196 101 4 134 103 43 167 161 102 20 145 224 265 275 238 196 190 163 163 167 171 172
328 275 276 248 208 183 212 214 231 241 167 175 218 139 177 169 171 204 208 255 200 166 127 142 100 258 121 209 172 137 194 63 115 153 168 165 254 208 195 188 180 180 176 173 169
336 283 256 211 186 200 220 196 224 233 199 213 160 145 172 169 166 192 205 233 172 147 161 196 117 148 199 265 198 190 183 162 141 206 101 141 268 94 194 245 176 170 170 166 166
293 278 280 192 201 216 248 208 218 178 214 187 204 228 181 164 173 192 184 151 165 155 160 183 180 99 14 354 352 216 197 150 115 90 191 142 250 69 43 119 154 152 162 163 163
270 275 246 233 250 196 174 207 215 206 206 201 167 139 129 171 264 176 184 68 190 175 164 130 133 164 188 192 141 188 185 171 137 127 164 217 186 210 186 160 154 160 165 164 163
282 286 312 280 240 203 192 178 209 208 207 177 192 199 172 157 146 166 139 117 99 185 90 139 158 133 52 108 132 167 172 171 190 174 165 211 188 211 191 181 174 169 165 164 161
276 319 303 284 275 244 190 212 190 209 160 206 202 190 190 167 184 191 139 179 181 168 155 334 154 106 50 52 44 105 159 190 208 173 266 124 235 74 136 165 164 169 166 166 162
319 305 270 280 293 287 216 204 190 166 219 209 197 137 188 214 139 6 130 129 148 147 154 141 135 105 170 89 88 332 206 185 180 182 166 184 206 161 152 165 168 168 171 165 159
Height
1517 1515 1513 1511 1509 1507 1504 1501 1498 1495 1496 1496 1495 1496 1498 1500 1501 1501 1502 1507 1508 1511 1513 1516 1518 1521 1521 1523 1533 1540 1545 1543 1534 1538 1529 1531 1533 1536 1537 1538 1541 1543 1544 1546 1549
1516 1515 1513 1511 1510 1507 1504 1500 1497 1494 1496 1496 1496 1497 1498 1499 1499 1499 1502 1504 1505 1508 1512 1514 1515 1518 1522 1529 1536 1542 1545 1533 1529 1528 1529 1529 1530 1533 1536 1538 1540 1542 1544 1545 1549
1514 1513 1513 1511 1508 1507 1504 1501 1499 1496 1496 1495 1496 1496 1497 1498 1501 1496 1499 1500 1503 1506 1511 1513 1515 1515 1523 1530 1535 1543 1537 1530 1528 1528 1528 1528 1531 1532 1533 1537 1535 1537 1541 1545 1548
1512 1511 1510 1509 1507 1506 1504 1501 1499 1499 1497 1496 1495 1495 1495 1498 1499 1494 1495 1497 1500 1505 1508 1511 1513 1515 1519 1525 1527 1539 1529 1532 1528 1527 1528 1528 1530 1531 1531 1531 1532 1536 1540 1543 1547
1511 1508 1508 1508 1505 1504 1503 1501 1499 1498 1498 1497 1496 1495 1497 1498 1495 1496 1496 1496 1499 1502 1504 1508 1509 1510 1517 1520 1527 1537 1528 1530 1528 1527 1527 1528 1531 1529 1530 1530 1532 1535 1539 1543 1546
1508 1507 1504 1504 1504 1502 1500 1499 1498 1498 1498 1497 1496 1495 1497 1497 1491 1493 1493 1495 1497 1500 1503 1506 1506 1508 1512 1514 1518 1523 1525 1529 1528 1528 1528 1530 1531 1529 1528 1529 1531 1534 1538 1542 1545
1506 1503 1502 1500 1500 1500 1498 1497 1497 1496 1496 1497 1497 1496 1497 1492 1491 1490 1491 1494 1496 1499 1501 1504 1506 1508 1507 1515 1519 1526 1531 1530 1530 1528 1528 1530 1532 1527 1525 1527 1530 1534 1538 1541 1544
1504 1502 1499 1497 1496 1497 1496 1495 1496 1494 1496 1497 1497 1497 1494 1490 1490 1489 1490 1493 1495 1499 1502 1505 1507 1509 1510 1517 1525 1530 1534 1534 1526 1527 1528 1530 1527 1521 1523 1526 1529 1533 1536 1540 1543
1504 1499 1497 1495 1493 1493 1494 1493 1493 1493 1494 1496 1497 1496 1490 1487 1486 1486 1488 1491 1494 1498 1501 1503 1505 1508 1513 1518 1530 1533 1529 1530 1525 1526 1526 1528 1523 1523 1524 1526 1528 1531 1535 1538 1542
1502 1499 1495 1494 1492 1490 1491 1491 1490 1490 1491 1494 1495 1498 1486 1483 1482 1484 1487 1490 1493 1496 1499 1502 1504 1508 1514 1517 1520 1523 1522 1524 1523 1524 1525 1528 1524 1522 1523 1525 1526 1529 1533 1536 1540
1501 1497 1494 1491 1490 1489 1487 1490 1493 1488 1485 1483 1484 1482 1480 1481 1481 1483 1485 1488 1491 1493 1495 1497 1503 1506 1508 1509 1506 1512 1514 1517 1521 1521 1523 1526 1524 1519 1521 1524 1525 1527 1530 1533 1537
1499 1496 1493 1490 1487 1487 1487 1484 1485 1481 1477 1475 1476 1478 1479 1479 1480 1481 1484 1487 1487 1492 1494 1501 1502 1499 1502 1507 1507 1510 1512 1519 1522 1522 1523 1523 1519 1516 1517 1517 1518 1522 1526 1529 1534
1496 1493 1490 1487 1485 1485 1486 1483 1481 1481 1476 1467 1469 1473 1476 1479 1477 1476 1480 1481 1484 1490 1491 1496 1493 1496 1499 1506 1506 1510 1511 1518 1516 1522 1524 1524 1517 1512 1511 1513 1515 1519 1522 1526 1530
1493 1490 1487 1484 1485 1482 1482 1483 1480 1481 1486 1467 1468 1469 1472 1474 1474 1473 1476 1478 1481 1487 1491 1490 1493 1495 1499 1504 1505 1509 1508 1514 1520 1521 1525 1529 1521 1511 1510 1511 1511 1513 1516 1521 1527
1489 1486 1485 1484 1482 1483 1483 1483 1483 1481 1506 1461 1464 1465 1467 1470 1468 1471 1473 1473 1477 1481 1486 1491 1494 1494 1497 1495 1498 1506 1509 1516 1521 1527 1527 1528 1529 1505 1511 1508 1506 1507 1510 1516 1522
1483 1482 1479 1481 1480 1480 1481 1482 1486 1493 1488 1458 1458 1463 1468 1466 1467 1469 1470 1473 1475 1478 1484 1490 1490 1491 1494 1500 1501 1510 1512 1521 1528 1531 1533 1523 1524 1505 1504 1499 1500 1502 1506 1512 1519
1476 1475 1475 1474 1475 1477 1477 1482 1495 1493 1450 1452 1455 1459 1465 1467 1467 1465 1468 1472 1474 1485 1488 1490 1491 1492 1492 1500 1506 1506 1511 1535 1535 1542 1525 1531 1531 1500 1495 1497 1497 1498 1503 1510 1517
1467 1466 1465 1467 1469 1473 1477 1480 1484 1452 1448 1441 1444 1456 1461 1463 1463 1465 1467 1471 1469 1471 1490 1493 1501 1492 1490 1493 1498 1507 1504 1520 1520 1530 1522 1533 1520 1493 1496 1496 1496 1497 1503 1510 1516
1459 1456 1453 1458 1463 1466 1473 1478 1445 1442 1438 1441 1442 1450 1458 1457 1460 1462 1467 1465 1460 1463 1469 1483 1484 1489 1489 1490 1491 1501 1509 1509 1526 1540 1528 1516 1508 1495 1497 1496 1497 1499 1504 1509 1515
1451 1446 1440 1452 1456 1459 1465 1445 1435 1424 1427 1435 1430 1432 1446 1453 1457 1461 1464 1448 1451 1452 1455 1467 1487 1491 1491 1491 1495 1495 1499 1507 1519 1526 1513 1514 1512 1490 1495 1495 1499 1500 1502 1507 1512
1447 1437 1432 1440 1444 1450 1437 1432 1426 1418 1418 1429 1427 1433 1433 1442 1447 1454 1448 1442 1441 1450 1452 1462 1472 1496 1492 1492 1491 1498 1497 1503 1505 1510 1509 1516 1497 1488 1487 1489 1493 1496 1500 1505 1511
1444 1440 1428 1431 1436 1427 1422 1420 1419 1415 1417 1416 1421 1420 1425 1431 1438 1445 1441 1437 1434 1438 1450 1455 1476 1497 1490 1487 1487 1487 1489 1490 1497 1507 1522 1517 1496 1486 1488 1489 1491 1496 1502 1508 1513
1442 1431 1423 1421 1407 1416 1415 1412 1413 1413 1413 1413 1414 1416 1417 1423 1425 1431 1431 1430 1432 1434 1440 1448 1470 1497 1491 1491 1489 1487 1486 1487 1496 1503 1509 1497 1489 1489 1489 1489 1491 1495 1502 1507 1511
1440 1427 1417 1413 1402 1394 1406 1405 1405 1404 1406 1407 1405 1411 1416 1417 1419 1427 1429 1429 1431 1432 1434 1437 1455 1453 1457 1457 1468 1480 1478 1483 1481 1503 1496 1492 1482 1486 1489 1490 1492 1497 1501 1507 1511
1440 1427 1416 1404 1397 1391 1393 1393 1397 1398 1399 1401 1405 1403 1407 1416 1422 1421 1426 1430 1432 1434 1435 1438 1456 1450 1458 1459 1459 1461 1466 1473 1479 1476 1477 1473 1478 1473 1478 1483 1489 1495 1501 1506 1510
1439 1432 1420 1410 1398 1389 1385 1383 1385 1390 1392 1395 1398 1395 1401 1406 1404 1415 1418 1422 1423 1434 1436 1439 1459 1467 1474 1462 1463 1460 1465 1468 1468 1472 1472 1476 1477 1475 1478 1484 1491 1494 1499 1504 1510
1435 1427 1423 1404 1394 1385 1372 1374 1376 1381 1384 1383 1386 1391 1397 1396 1398 1400 1405 1405 1409 1420 1432 1438 1454 1462 1458 1466 1469 1471 1458 1462 1463 1463 1462 1472 1464 1474 1481 1482 1485 1491 1497 1503 1508